Location: Prague
(50.0830°N, 14.4670°E)
Time: 21:28:44
(UTC+02:00)

Tiangong - Pass Details

Date: 05 October 2021
Orbit: 382 x 385 km, 41.5° (Epoch: 15 October)

Event Time Altitude Azimuth Distance (km) Brightness Sun altitude
Exits shadow 05:07:07 13° 160° (SSE) 1,242 3.7 -20.1°
Drops below altitude 10° 05:07:47 10° 149° (SSE) 1,397 4.0 -20.0°
Sets 05:10:23 0° 126° (SE) 2,248 5.5 -19.6°
